World > North America > United States > California

Pioneertown, California Regional Weather

Lat: 34.16N, Lon: 116.5W
Wx Zone: CAZ060
Feedback

Pioneertown, CA Regional Weather

Expires:201908251600;;189427
ASUS46 KLOX 251513
RWRCA 

SOUTHERN CALIFORNIA WEATHER ROUNDUP
NATIONAL WEATHER SERVICE OXNARD CALIFORNIA
800 AM PDT SUN AUG 25 2019

NOTE: "FAIR" INDICATES FEW OR NO CLOUDS BELOW 12,000 FEET WITH NO 
SIGNIFICANT WEATHER AND/OR OBSTRUCTIONS TO VISIBILITY.

  -  STATIONS PRECEEDED BY AN ASTERISK (*) ARE NOT NWS OR FAA 
     STATIONS AND ARE NOT SUBJECT TO NWS AND FAA QUALITY CONTROL.


CAZ028-029-059-060-099-251600-
ANTELOPE VALLEY AND SURROUNDING AREAS

  
CITY           SKY/WX    TMP DP  RH WIND       PRES   REMARKS
LANCASTER      SUNNY     74  49  41 CALM      30.06R                  
PALMDALE       SUNNY     79  49  34 CALM      30.07R                  
*POPPY PARK      N/A     81  51  34 W2          N/A                   

CITY           SKY/WX    TMP DP  RH WIND       PRES   REMARKS
29 PALMS       SUNNY     81  57  43 NW5       30.10R                  
BARSTOW/DAGGET SUNNY     79  45  29 W9        30.02R                  
BISHOP         SUNNY     66  37  34 NW5       30.14S                  
CHINA LAKE     SUNNY     77  47  34 CALM      30.01R                  
EDWARDS AFB    SUNNY     76  49  38 SW14      30.03R                  
MOJAVE         SUNNY     79  57  47 SW13      30.06S                  
NEEDLES        SUNNY     92  63  38 CALM      29.96R HX  93           
VICTORVILLE    SUNNY    N/A N/A N/A SE6       30.09R                  

$$


SKY/WX - Weather  TMP - Temperature  DP - Dew Point  RH - Relative Humidity
WIND - Wind Direction/Speed PRES - Barometric Pressure VSB - Visibility
WCI - Wind Chill Index E13G22 Wind - East Wind 13 mph/Gusts of 22 mph